User: anonymous   Login
Location: Ç?ral? Körfezi
(36.3984°N, 30.4829°E)
Time: 01:40:58
(UTC+00:00)
Language:

Cosmos 1867 - Orbit

View from above orbital plane
View from above orbital plane
View from above satellite
View from above satellite

Ground track
Ground track

The orbit data is extracted from the following two-line orbital elements,

1 18187U 87060A   24287.40559519  .00000244  00000-0  12933-3 0  9998
2 18187  65.0101 301.2189 0020572 264.6090  95.2648 14.31359959946605
Epoch (UTC): 13 October 2024 09:44:03
Eccentricity: 0.0020572
inclination: 65.0101°
perigee height: 772 km
apogee height: 802 km
right ascension of ascending node: 301.2189°
argument of perigee: 264.6090°
revolutions per day: 14.31359959
mean anomaly at epoch: 95.2648°
orbit number at epoch: 94660

The dashed part of the orbit path shows where the satellite is in the earth's shadow,  

DLR